DLH40B EDDF-KJFK

Flight info

Callsign DLH40B
Flight time 8h 9m
Altitude 36000
Route OBOKA3D/07C OBOKA Z28 DIBIR DCT BUDIP DCT GISEB DCT RAVLO Y70 OTBED DCT ABLUC DCT OZRAT DCT WETFI DCT ASKUP DCT REVNU DCT RESNO/M083F370 NATE LOMSI/N0488F380 N666A MIILS DCT ENE PARCH4
Aircraft A346/H-SDE2E3FGHIJ3J4J5M1RWXY/LB1D1

Departure

Time 2026-04-07 15:24
Airport Frankfurt Main Airport (EDDF)

Arrival

Time 2026-04-07 23:33
Airport John F. Kennedy International Airport (KJFK)
Time Latitude Longitude Altitude Speed Heading
2026-04-07 14:29 50.04740 8.56395 377 ft 0 kts 340°
2026-04-07 15:13 50.04734 8.56399 377 ft 2 kts 339°
2026-04-07 15:13 50.04720 8.56408 377 ft 2 kts 337°
2026-04-07 15:13 50.04706 8.56417 377 ft 2 kts 339°
2026-04-07 15:14 50.04692 8.56425 377 ft 2 kts 330°
2026-04-07 15:14 50.04681 8.56441 377 ft 2 kts 297°
2026-04-07 15:14 50.04677 8.56463 377 ft 2 kts 272°
2026-04-07 15:14 50.04680 8.56485 378 ft 2 kts 247°
2026-04-07 15:15 50.04684 8.56503 378 ft 0 kts 248°
2026-04-07 15:15 50.04686 8.56511 378 ft 0 kts 249°
2026-04-07 15:16 50.04686 8.56507 378 ft 2 kts 249°
2026-04-07 15:17 50.04671 8.56449 377 ft 9 kts 250°
2026-04-07 15:17 50.04637 8.56307 374 ft 18 kts 250°
2026-04-07 15:17 50.04584 8.56082 374 ft 25 kts 250°
2026-04-07 15:17 50.04476 8.55928 374 ft 21 kts 197°
2026-04-07 15:18 50.04331 8.55938 371 ft 20 kts 163°
2026-04-07 15:18 50.04228 8.55929 367 ft 9 kts 212°
2026-04-07 15:18 50.04179 8.55926 365 ft 8 kts 158°
2026-04-07 15:18 50.04103 8.55966 363 ft 13 kts 175°
2026-04-07 15:19 50.04026 8.55856 359 ft 19 kts 248°
2026-04-07 15:19 50.03974 8.55638 360 ft 23 kts 250°
2026-04-07 15:19 50.03912 8.55375 359 ft 28 kts 250°
2026-04-07 15:19 50.03843 8.55086 356 ft 29 kts 250°
2026-04-07 15:20 50.03768 8.54777 352 ft 31 kts 249°
2026-04-07 15:20 50.03692 8.54451 349 ft 30 kts 250°
2026-04-07 15:20 50.03613 8.54314 347 ft 12 kts 170°
2026-04-07 15:20 50.03582 8.54329 346 ft 0 kts 161°
2026-04-07 15:21 50.03581 8.54330 346 ft 0 kts 161°
2026-04-07 15:22 50.03577 8.54331 346 ft 2 kts 161°
2026-04-07 15:23 50.03545 8.54348 346 ft 7 kts 162°
2026-04-07 15:23 50.03508 8.54417 345 ft 10 kts 102°
2026-04-07 15:23 50.03524 8.54550 346 ft 19 kts 70°
2026-04-07 15:23 50.03663 8.55137 354 ft 94 kts 70°
2026-04-07 15:24 50.03970 8.56424 361 ft 157 kts 69°
2026-04-07 15:24 50.04394 8.58175 661 ft 182 kts 68°
2026-04-07 15:24 50.04858 8.60006 1288 ft 186 kts 67°
2026-04-07 15:24 50.05359 8.61864 2029 ft 189 kts 67°
2026-04-07 15:25 50.05820 8.63764 2582 ft 192 kts 70°
2026-04-07 15:25 50.06256 8.65795 2939 ft 205 kts 71°
2026-04-07 15:25 50.06708 8.68010 3313 ft 218 kts 72°
2026-04-07 15:25 50.07254 8.70297 3629 ft 234 kts 57°
2026-04-07 15:26 50.08438 8.71968 4270 ft 236 kts 25°
2026-04-07 15:26 50.10010 8.72996 4590 ft 256 kts 22°
2026-04-07 15:26 50.11678 8.74030 5241 ft 261 kts 21°
2026-04-07 15:26 50.13366 8.75065 6076 ft 260 kts 22°
2026-04-07 15:27 50.15010 8.76142 6864 ft 260 kts 22°
2026-04-07 15:27 50.16659 8.77257 7526 ft 265 kts 23°
2026-04-07 15:27 50.18365 8.78443 8202 ft 269 kts 23°
2026-04-07 15:27 50.20076 8.79484 8871 ft 270 kts 10°
2026-04-07 15:28 50.21926 8.79259 9544 ft 273 kts 338°
2026-04-07 15:28 50.23523 8.77678 10211 ft 279 kts 317°
2026-04-07 15:28 50.24657 8.75160 10744 ft 292 kts 301°
2026-04-07 15:28 50.25604 8.72244 11017 ft 309 kts 301°
2026-04-07 15:29 50.26633 8.69238 11273 ft 326 kts 302°
2026-04-07 15:29 50.27765 8.66092 11579 ft 341 kts 303°
2026-04-07 15:29 50.28943 8.62775 11846 ft 357 kts 303°
2026-04-07 15:29 50.30211 8.59322 12189 ft 371 kts 303°
2026-04-07 15:30 50.31506 8.55832 12778 ft 375 kts 304°
2026-04-07 15:30 50.32818 8.52284 13463 ft 378 kts 303°
2026-04-07 15:30 50.34113 8.48690 14128 ft 380 kts 302°
2026-04-07 15:30 50.35389 8.45081 14738 ft 384 kts 302°
2026-04-07 15:31 50.36708 8.41405 15359 ft 387 kts 302°
2026-04-07 15:31 50.38010 8.37776 15981 ft 389 kts 302°
2026-04-07 15:31 50.39333 8.34085 16588 ft 391 kts 301°
2026-04-07 15:31 50.40695 8.30273 17193 ft 394 kts 301°
2026-04-07 15:32 50.42039 8.26505 17777 ft 397 kts 301°
2026-04-07 15:32 50.43371 8.22766 18326 ft 400 kts 301°
2026-04-07 15:32 50.44759 8.18862 18899 ft 403 kts 301°
2026-04-07 15:32 50.46128 8.15000 19455 ft 405 kts 301°
2026-04-07 15:33 50.47518 8.11076 20000 ft 408 kts 301°
2026-04-07 15:33 50.48891 8.07190 20534 ft 410 kts 301°
2026-04-07 15:33 50.50299 8.03206 21054 ft 413 kts 301°
2026-04-07 15:33 50.51689 7.99264 21541 ft 416 kts 301°
2026-04-07 15:34 50.53119 7.95203 22045 ft 419 kts 301°
2026-04-07 15:34 50.54532 7.91185 22530 ft 421 kts 301°
2026-04-07 15:34 50.55968 7.87093 23003 ft 424 kts 301°
2026-04-07 15:34 50.57391 7.83038 23530 ft 425 kts 301°
2026-04-07 15:35 50.58833 7.78929 23996 ft 428 kts 301°
2026-04-07 15:35 50.60295 7.74760 24404 ft 431 kts 301°
2026-04-07 15:35 50.61757 7.70577 24821 ft 434 kts 301°
2026-04-07 15:35 50.63211 7.66405 25246 ft 437 kts 301°
2026-04-07 15:36 50.64695 7.62138 25649 ft 440 kts 301°
2026-04-07 15:36 50.66174 7.57881 26031 ft 443 kts 301°
2026-04-07 15:36 50.67669 7.53566 26416 ft 446 kts 301°
2026-04-07 15:36 50.69156 7.49265 26786 ft 449 kts 301°
2026-04-07 15:37 50.70656 7.44917 27159 ft 451 kts 300°
2026-04-07 15:37 50.72163 7.40541 27524 ft 454 kts 300°
2026-04-07 15:37 50.73708 7.36160 27873 ft 457 kts 302°
2026-04-07 15:37 50.75386 7.31881 28229 ft 458 kts 304°
2026-04-07 15:38 50.77178 7.27747 28705 ft 458 kts 306°
2026-04-07 15:38 50.78982 7.23699 29245 ft 456 kts 306°
2026-04-07 15:38 50.80817 7.19602 29759 ft 454 kts 306°
2026-04-07 15:38 50.82629 7.15551 30248 ft 453 kts 306°
2026-04-07 15:39 50.84449 7.11471 30711 ft 452 kts 306°
2026-04-07 15:39 50.86250 7.07423 31163 ft 451 kts 306°
2026-04-07 15:39 50.88041 7.03384 31626 ft 450 kts 306°
2026-04-07 15:39 50.89839 6.99326 32085 ft 448 kts 305°
2026-04-07 15:40 50.91605 6.95336 32510 ft 447 kts 305°
2026-04-07 15:40 50.93389 6.91304 32930 ft 446 kts 305°
2026-04-07 15:40 50.95149 6.87317 33335 ft 444 kts 305°
2026-04-07 15:40 50.96903 6.83338 33718 ft 443 kts 305°
2026-04-07 15:41 50.98662 6.79340 34085 ft 443 kts 305°
2026-04-07 15:41 51.00422 6.75335 34436 ft 442 kts 304°
2026-04-07 15:41 51.02175 6.71337 34791 ft 441 kts 305°
2026-04-07 15:41 51.03907 6.67384 35096 ft 442 kts 304°
2026-04-07 15:42 51.05662 6.63368 35378 ft 442 kts 304°
2026-04-07 15:42 51.07410 6.59362 35649 ft 443 kts 304°
2026-04-07 15:42 51.10898 6.51355 36155 ft 444 kts 304°
2026-04-07 15:43 51.12664 6.47288 36274 ft 446 kts 304°
2026-04-07 15:43 51.14424 6.43229 36276 ft 446 kts 304°
2026-04-07 15:43 51.17933 6.35121 36284 ft 447 kts 304°
2026-04-07 15:44 51.21456 6.26955 36290 ft 447 kts 303°
2026-04-07 15:44 51.24935 6.18861 36286 ft 446 kts 303°
2026-04-07 15:45 51.28437 6.10668 36292 ft 446 kts 302°
2026-04-07 15:45 51.31808 6.02434 36294 ft 447 kts 302°
2026-04-07 15:46 51.35216 5.94078 36288 ft 447 kts 303°
2026-04-07 15:46 51.38929 5.86115 36288 ft 449 kts 308°
2026-04-07 15:47 51.42387 5.77930 36294 ft 448 kts 300°
2026-04-07 15:47 51.45568 5.69390 36295 ft 448 kts 300°
2026-04-07 15:48 51.48797 5.60809 36297 ft 448 kts 300°
2026-04-07 15:48 51.52008 5.52343 36296 ft 447 kts 300°
2026-04-07 15:49 51.55236 5.43842 36299 ft 448 kts 300°
2026-04-07 15:49 51.58477 5.35291 36293 ft 448 kts 300°
2026-04-07 15:50 51.61697 5.26770 36294 ft 448 kts 300°
2026-04-07 15:50 51.64928 5.18197 36293 ft 449 kts 300°
2026-04-07 15:51 51.68135 5.09659 36288 ft 449 kts 300°
2026-04-07 15:51 51.71350 5.01071 36288 ft 450 kts 300°
2026-04-07 15:52 51.74570 4.92442 36286 ft 450 kts 300°
2026-04-07 15:52 51.77778 4.83815 36286 ft 450 kts 299°
2026-04-07 15:53 51.80975 4.75189 36288 ft 449 kts 299°
2026-04-07 15:53 51.84152 4.66583 36295 ft 449 kts 299°
2026-04-07 15:54 51.87347 4.57901 36295 ft 449 kts 299°
2026-04-07 15:54 51.90519 4.49252 36292 ft 450 kts 299°
2026-04-07 15:55 51.93693 4.40571 36293 ft 451 kts 299°
2026-04-07 15:55 51.96890 4.31795 36293 ft 451 kts 298°
2026-04-07 15:56 52.00053 4.23084 36290 ft 451 kts 298°
2026-04-07 15:56 52.03219 4.14335 36288 ft 452 kts 298°
2026-04-07 15:57 52.06385 4.05551 36284 ft 452 kts 298°
2026-04-07 15:57 52.09531 3.96794 36290 ft 451 kts 298°
2026-04-07 15:58 52.12698 3.87948 36291 ft 452 kts 298°
2026-04-07 15:58 52.15842 3.79136 36293 ft 453 kts 298°
2026-04-07 15:59 52.18984 3.70300 36291 ft 453 kts 298°
2026-04-07 15:59 52.22110 3.61478 36291 ft 453 kts 298°
2026-04-07 16:00 52.25250 3.52583 36290 ft 453 kts 298°
2026-04-07 16:00 52.28376 3.43695 36295 ft 453 kts 297°
2026-04-07 16:01 52.31507 3.34758 36295 ft 453 kts 297°
2026-04-07 16:01 52.34610 3.25877 36299 ft 453 kts 297°
2026-04-07 16:02 52.37719 3.16946 36295 ft 454 kts 297°
2026-04-07 16:02 52.40842 3.07940 36294 ft 454 kts 297°
2026-04-07 16:03 52.43938 2.98983 36292 ft 454 kts 297°
2026-04-07 16:03 52.47030 2.90004 36293 ft 454 kts 297°
2026-04-07 16:04 52.50118 2.80997 36292 ft 454 kts 297°
2026-04-07 16:04 52.53209 2.71956 36295 ft 454 kts 297°
2026-04-07 16:05 52.56264 2.62980 36297 ft 455 kts 297°
2026-04-07 16:05 52.59343 2.53909 36297 ft 455 kts 297°
2026-04-07 16:06 52.62421 2.44805 36299 ft 455 kts 297°
2026-04-07 16:06 52.65478 2.35731 36294 ft 455 kts 297°
2026-04-07 16:07 52.68488 2.26764 36295 ft 455 kts 296°
2026-04-07 16:07 52.71553 2.17600 36297 ft 455 kts 296°
2026-04-07 16:08 52.74586 2.08497 36293 ft 455 kts 296°
2026-04-07 16:08 52.77617 1.99351 36272 ft 455 kts 296°
2026-04-07 16:09 52.80636 1.90173 36283 ft 455 kts 296°
2026-04-07 16:09 52.83672 1.80998 36292 ft 455 kts 296°
2026-04-07 16:10 52.86691 1.71823 36290 ft 456 kts 296°
2026-04-07 16:10 52.89692 1.62650 36287 ft 456 kts 296°
2026-04-07 16:11 52.92700 1.53425 36283 ft 456 kts 296°
2026-04-07 16:11 52.95692 1.44208 36284 ft 455 kts 296°
2026-04-07 16:12 52.98678 1.34974 36286 ft 455 kts 295°
2026-04-07 16:12 53.01640 1.25783 36290 ft 455 kts 295°
2026-04-07 16:13 53.04608 1.16532 36290 ft 455 kts 295°
2026-04-07 16:13 53.07561 1.07298 36286 ft 456 kts 295°
2026-04-07 16:14 53.10532 0.97970 36288 ft 456 kts 295°
2026-04-07 16:14 53.13470 0.88716 36291 ft 455 kts 295°
2026-04-07 16:15 53.16416 0.79397 36287 ft 455 kts 295°
2026-04-07 16:15 53.19307 0.70120 36292 ft 455 kts 293°
2026-04-07 16:16 53.21751 0.60470 36280 ft 452 kts 288°
2026-04-07 16:16 53.23570 0.50467 36277 ft 450 kts 282°
2026-04-07 16:17 53.24834 0.40295 36269 ft 449 kts 279°
2026-04-07 16:17 53.25944 0.30093 36269 ft 448 kts 278°
2026-04-07 16:18 53.27026 0.19900 36256 ft 447 kts 278°
2026-04-07 16:18 53.28101 0.09741 36247 ft 446 kts 278°
2026-04-07 16:19 53.29264 -0.00423 36235 ft 447 kts 280°
2026-04-07 16:19 53.30593 -0.10527 36233 ft 448 kts 280°
2026-04-07 16:20 53.31926 -0.20659 36235 ft 447 kts 280°
2026-04-07 16:20 53.33251 -0.30816 36232 ft 447 kts 280°
2026-04-07 16:21 53.34555 -0.40884 36049 ft 447 kts 280°
2026-04-07 16:21 53.35861 -0.51054 36190 ft 448 kts 280°
2026-04-07 16:22 53.37156 -0.61207 36221 ft 448 kts 280°
2026-04-07 16:22 53.38452 -0.71453 36222 ft 448 kts 279°
2026-04-07 16:23 53.39729 -0.81609 36215 ft 448 kts 279°
2026-04-07 16:23 53.40997 -0.91772 36210 ft 448 kts 279°
2026-04-07 16:24 53.42256 -1.01948 36205 ft 448 kts 279°
2026-04-07 16:24 53.43512 -1.12167 36201 ft 447 kts 279°
2026-04-07 16:25 53.44748 -1.22297 36194 ft 447 kts 279°
2026-04-07 16:25 53.45983 -1.32493 36190 ft 447 kts 279°
2026-04-07 16:26 53.47202 -1.42635 36184 ft 447 kts 279°
2026-04-07 16:26 53.48424 -1.52887 36184 ft 447 kts 279°
2026-04-07 16:27 53.49630 -1.63072 36180 ft 447 kts 278°
2026-04-07 16:27 53.50831 -1.73309 36173 ft 446 kts 278°
2026-04-07 16:28 53.52015 -1.83479 36169 ft 446 kts 278°
2026-04-07 16:28 53.53212 -1.93838 36165 ft 445 kts 277°
2026-04-07 16:29 53.54404 -2.04241 36156 ft 445 kts 277°
2026-04-07 16:29 53.55603 -2.14797 36150 ft 446 kts 277°
2026-04-07 16:30 53.56754 -2.24994 36147 ft 446 kts 277°
2026-04-07 16:30 53.57910 -2.35332 36145 ft 446 kts 277°
2026-04-07 16:31 53.59044 -2.45550 36140 ft 446 kts 277°
2026-04-07 16:31 53.60174 -2.55819 36136 ft 447 kts 277°
2026-04-07 16:32 53.61295 -2.66092 36131 ft 446 kts 276°
2026-04-07 16:32 53.62400 -2.76319 36128 ft 446 kts 276°
2026-04-07 16:33 53.63498 -2.86554 36125 ft 445 kts 276°
2026-04-07 16:33 53.64587 -2.96793 36120 ft 445 kts 276°
2026-04-07 16:34 53.65669 -3.07053 36115 ft 446 kts 276°
2026-04-07 16:34 53.66739 -3.17288 36110 ft 446 kts 276°
2026-04-07 16:35 53.67801 -3.27544 36107 ft 447 kts 276°
2026-04-07 16:35 53.68858 -3.37819 36094 ft 448 kts 276°
2026-04-07 16:36 53.69913 -3.48188 36096 ft 448 kts 276°
2026-04-07 16:36 53.70955 -3.58512 36090 ft 448 kts 276°
2026-04-07 16:37 53.71987 -3.68830 36085 ft 448 kts 275°
2026-04-07 16:37 53.73012 -3.79178 36086 ft 448 kts 275°
2026-04-07 16:38 53.74028 -3.89504 36082 ft 447 kts 275°
2026-04-07 16:38 53.75032 -3.99832 36071 ft 448 kts 275°
2026-04-07 16:39 53.76028 -4.10151 36068 ft 449 kts 275°
2026-04-07 16:39 53.77021 -4.20549 36065 ft 449 kts 275°
2026-04-07 16:40 53.78007 -4.30956 36066 ft 449 kts 275°
2026-04-07 16:40 53.78981 -4.41352 36067 ft 450 kts 275°
2026-04-07 16:41 53.79859 -4.51777 36069 ft 448 kts 272°
2026-04-07 16:41 53.80281 -4.62240 36067 ft 447 kts 270°
2026-04-07 16:42 53.80637 -4.72702 36067 ft 447 kts 269°
2026-04-07 16:42 53.80981 -4.83105 36068 ft 448 kts 269°
2026-04-07 16:43 53.81315 -4.93581 36067 ft 448 kts 269°
2026-04-07 16:43 53.81640 -5.04050 36068 ft 448 kts 269°
2026-04-07 16:44 53.81958 -5.14543 36070 ft 448 kts 269°
2026-04-07 16:44 53.82269 -5.25064 36069 ft 448 kts 269°
2026-04-07 16:45 53.82567 -5.35473 36070 ft 447 kts 269°
2026-04-07 16:45 53.82881 -5.46013 36070 ft 448 kts 271°
2026-04-07 16:46 53.83634 -5.56418 36073 ft 451 kts 276°
2026-04-07 16:46 53.84718 -5.66846 36074 ft 451 kts 276°
2026-04-07 16:47 53.85808 -5.77274 36072 ft 450 kts 275°
2026-04-07 16:47 53.86880 -5.87650 36072 ft 450 kts 275°
2026-04-07 16:48 53.87946 -5.98069 36072 ft 450 kts 275°
2026-04-07 16:49 53.89698 -6.13627 36074 ft 452 kts 279°
2026-04-07 16:49 53.91325 -6.23925 36072 ft 453 kts 281°
2026-04-07 16:50 53.92972 -6.34164 36070 ft 453 kts 281°
2026-04-07 16:50 53.94614 -6.44451 36069 ft 453 kts 281°
2026-04-07 16:51 53.96244 -6.54734 36058 ft 452 kts 280°
2026-04-07 16:51 53.97855 -6.64963 36057 ft 453 kts 280°
2026-04-07 16:52 53.99476 -6.75321 36055 ft 452 kts 279°
2026-04-07 16:52 54.01073 -6.85602 36049 ft 453 kts 279°
2026-04-07 16:53 54.02663 -6.95895 36045 ft 453 kts 279°
2026-04-07 16:53 54.04246 -7.06209 36036 ft 453 kts 279°
2026-04-07 16:54 54.05824 -7.16561 36034 ft 452 kts 279°
2026-04-07 16:54 54.07386 -7.26868 36032 ft 452 kts 279°
2026-04-07 16:55 54.08942 -7.37209 36034 ft 452 kts 279°
2026-04-07 16:55 54.10482 -7.47497 36030 ft 452 kts 278°
2026-04-07 16:56 54.12019 -7.57838 36029 ft 453 kts 278°
2026-04-07 16:56 54.13553 -7.68225 36027 ft 454 kts 278°
2026-04-07 16:57 54.15083 -7.78651 36017 ft 453 kts 277°
2026-04-07 16:57 54.16591 -7.89001 36015 ft 453 kts 277°
2026-04-07 16:58 54.18092 -7.99367 36014 ft 453 kts 277°
2026-04-07 16:58 54.19588 -8.09773 36013 ft 453 kts 277°
2026-04-07 16:59 54.21079 -8.20208 36006 ft 452 kts 277°
2026-04-07 16:59 54.22554 -8.30615 36008 ft 452 kts 277°
2026-04-07 17:00 54.24017 -8.40999 36008 ft 452 kts 277°
2026-04-07 17:00 54.25473 -8.51393 36008 ft 452 kts 277°
2026-04-07 17:01 54.26922 -8.61817 36011 ft 453 kts 277°
2026-04-07 17:01 54.28365 -8.72278 36005 ft 453 kts 276°
2026-04-07 17:02 54.29800 -8.82735 36009 ft 452 kts 276°
2026-04-07 17:02 54.31226 -8.93207 36008 ft 452 kts 276°
2026-04-07 17:03 54.32638 -9.03655 36000 ft 452 kts 276°
2026-04-07 17:03 54.34036 -9.14078 35987 ft 451 kts 276°
2026-04-07 17:04 54.35433 -9.24563 36006 ft 452 kts 276°
2026-04-07 17:04 54.36811 -9.34985 36001 ft 452 kts 276°
2026-04-07 17:05 54.38191 -9.45495 36012 ft 453 kts 276°
2026-04-07 17:05 54.39557 -9.55964 36001 ft 453 kts 276°
2026-04-07 17:06 54.40918 -9.66476 36007 ft 453 kts 275°
2026-04-07 17:06 54.42273 -9.77013 35897 ft 451 kts 275°
2026-04-07 17:06 54.42950 -9.82304 36132 ft 451 kts 275°
2026-04-07 17:07 54.43617 -9.87530 36070 ft 451 kts 275°
2026-04-07 17:07 54.44942 -9.97991 36032 ft 451 kts 275°
2026-04-07 17:08 54.46262 -10.08513 36020 ft 452 kts 275°
2026-04-07 17:08 54.47603 -10.19035 36033 ft 452 kts 275°
2026-04-07 17:09 54.48971 -10.29545 36023 ft 452 kts 275°
2026-04-07 17:09 54.50330 -10.40078 36027 ft 451 kts 276°
2026-04-07 17:10 54.51674 -10.50573 36022 ft 452 kts 275°
2026-04-07 17:10 54.53009 -10.61086 36017 ft 452 kts 275°
2026-04-07 17:11 54.54338 -10.71637 36012 ft 450 kts 275°
2026-04-07 17:11 54.55651 -10.82121 36017 ft 451 kts 275°
2026-04-07 17:12 54.56958 -10.92651 36023 ft 451 kts 275°
2026-04-07 17:12 54.57711 -10.98767 36039 ft 450 kts 275°
2026-04-07 17:13 54.59462 -11.13061 36019 ft 451 kts 275°
2026-04-07 17:13 54.60737 -11.23574 36005 ft 450 kts 275°
2026-04-07 17:14 54.62000 -11.34080 36017 ft 450 kts 276°
2026-04-07 17:14 54.63260 -11.44626 36024 ft 451 kts 276°
2026-04-07 17:15 54.64511 -11.55194 36019 ft 451 kts 276°
2026-04-07 17:15 54.65749 -11.65725 36024 ft 451 kts 275°
2026-04-07 17:16 54.66991 -11.76372 36022 ft 451 kts 275°
2026-04-07 17:16 54.68216 -11.86947 36037 ft 451 kts 276°
2026-04-07 17:17 54.69432 -11.97571 36034 ft 451 kts 276°
2026-04-07 17:17 54.70634 -12.08115 36039 ft 451 kts 276°
2026-04-07 17:18 54.71837 -12.18769 36035 ft 451 kts 276°
2026-04-07 17:18 54.73021 -12.29355 36038 ft 451 kts 277°
2026-04-07 17:19 54.74193 -12.39914 36026 ft 451 kts 277°
2026-04-07 17:19 54.75358 -12.50500 36039 ft 451 kts 277°
2026-04-07 17:20 54.76516 -12.61112 36038 ft 451 kts 277°
2026-04-07 17:20 54.77669 -12.71788 35797 ft 450 kts 277°
2026-04-07 17:20 54.78243 -12.77124 36200 ft 452 kts 277°
2026-04-07 17:21 54.78811 -12.82440 35954 ft 452 kts 277°
2026-04-07 17:21 54.79382 -12.87799 36259 ft 453 kts 277°
2026-04-07 17:21 54.79924 -12.92905 36163 ft 452 kts 277°
2026-04-07 17:21 54.80489 -12.98231 35953 ft 452 kts 277°
2026-04-07 17:22 54.81056 -13.03630 36007 ft 452 kts 277°
2026-04-07 17:22 54.82169 -13.14278 36033 ft 453 kts 277°
2026-04-07 17:23 54.83286 -13.25074 36400 ft 454 kts 277°
2026-04-07 17:23 54.83837 -13.30433 36722 ft 452 kts 277°
2026-04-07 17:23 54.84383 -13.35764 36995 ft 451 kts 277°
2026-04-07 17:23 54.84927 -13.41112 37213 ft 450 kts 278°
2026-04-07 17:24 54.85468 -13.46440 37419 ft 450 kts 278°
2026-04-07 17:24 54.86007 -13.51785 37598 ft 451 kts 278°
2026-04-07 17:24 54.86545 -13.57145 37781 ft 451 kts 278°
2026-04-07 17:24 54.87076 -13.62445 37962 ft 450 kts 278°
2026-04-07 17:25 54.87606 -13.67783 38033 ft 451 kts 277°
2026-04-07 17:25 54.88663 -13.78447 38046 ft 450 kts 277°
2026-04-07 17:26 54.89710 -13.89131 38052 ft 450 kts 277°
2026-04-07 17:26 54.90747 -13.99831 38056 ft 450 kts 277°
2026-04-07 17:27 54.91770 -14.10469 38055 ft 449 kts 277°
2026-04-07 17:27 54.92781 -14.21107 38080 ft 448 kts 277°
2026-04-07 17:28 54.93788 -14.31778 38051 ft 447 kts 277°
2026-04-07 17:28 54.94785 -14.42453 38044 ft 447 kts 277°
2026-04-07 17:29 54.95761 -14.53017 38047 ft 446 kts 278°
2026-04-07 17:29 54.96738 -14.63683 38051 ft 445 kts 278°
2026-04-07 17:30 54.97700 -14.74278 38059 ft 444 kts 277°
2026-04-07 17:30 54.98644 -14.84826 38062 ft 443 kts 277°
2026-04-07 17:31 54.99731 -14.95393 38054 ft 443 kts 281°
2026-04-07 17:31 55.01363 -15.05703 38059 ft 444 kts 286°
2026-04-07 17:32 55.03490 -15.15714 38053 ft 445 kts 289°
2026-04-07 17:32 55.05723 -15.25710 38048 ft 446 kts 289°
2026-04-07 17:33 55.07980 -15.35832 38050 ft 447 kts 289°
2026-04-07 17:33 55.10202 -15.45853 38040 ft 446 kts 289°
2026-04-07 17:34 55.12436 -15.55987 38047 ft 447 kts 289°
2026-04-07 17:34 55.14649 -15.66068 38047 ft 447 kts 289°
2026-04-07 17:35 55.16856 -15.76172 38038 ft 448 kts 289°
2026-04-07 17:35 55.19062 -15.86322 38038 ft 449 kts 289°
2026-04-07 17:36 55.21266 -15.96513 38043 ft 450 kts 289°
2026-04-07 17:36 55.23461 -16.06715 38038 ft 450 kts 289°
2026-04-07 17:37 55.25519 -16.16320 38032 ft 449 kts 289°
2026-04-07 17:37 55.27787 -16.26967 37977 ft 447 kts 289°
2026-04-07 17:38 55.29957 -16.37206 38009 ft 447 kts 289°
2026-04-07 17:38 55.32100 -16.47363 38011 ft 447 kts 289°
2026-04-07 17:39 55.34244 -16.57583 38014 ft 446 kts 289°
2026-04-07 17:39 55.36369 -16.67767 38014 ft 446 kts 288°
2026-04-07 17:40 55.38485 -16.77945 38001 ft 445 kts 288°
2026-04-07 17:40 55.40596 -16.88155 38009 ft 444 kts 288°
2026-04-07 17:41 55.42686 -16.98318 37999 ft 444 kts 288°
2026-04-07 17:41 55.44767 -17.08492 38004 ft 442 kts 288°
2026-04-07 17:42 55.46830 -17.18623 38004 ft 442 kts 288°
2026-04-07 17:42 55.48880 -17.28751 37997 ft 441 kts 288°
2026-04-07 17:43 55.50928 -17.38918 37997 ft 441 kts 288°
2026-04-07 17:43 55.52968 -17.49090 37997 ft 441 kts 288°
2026-04-07 17:44 55.54960 -17.59077 37996 ft 442 kts 288°
2026-04-07 17:44 55.56987 -17.69305 37989 ft 441 kts 288°
2026-04-07 17:45 55.58991 -17.79450 37984 ft 439 kts 288°
2026-04-07 17:45 55.60984 -17.89600 37986 ft 439 kts 288°
2026-04-07 17:46 55.62968 -17.99756 37982 ft 439 kts 287°
2026-04-07 17:46 55.64945 -18.09935 37981 ft 438 kts 287°
2026-04-07 17:47 55.66916 -18.20139 37985 ft 437 kts 288°
2026-04-07 17:47 55.68872 -18.30311 37977 ft 437 kts 287°
2026-04-07 17:48 55.70821 -18.40502 37972 ft 435 kts 287°
2026-04-07 17:48 55.72763 -18.50719 37965 ft 435 kts 288°
2026-04-07 17:49 55.74687 -18.60883 37964 ft 436 kts 287°
2026-04-07 17:49 55.76604 -18.71072 37949 ft 434 kts 287°
2026-04-07 17:50 55.78510 -18.81250 37947 ft 434 kts 286°
2026-04-07 17:50 55.80390 -18.91348 37951 ft 433 kts 287°
2026-04-07 17:51 55.82265 -19.01473 37942 ft 432 kts 287°
2026-04-07 17:51 55.84130 -19.11601 37943 ft 431 kts 286°
2026-04-07 17:52 55.85979 -19.21690 37941 ft 432 kts 286°
2026-04-07 17:52 55.87518 -19.30137 37935 ft 431 kts 286°
2026-04-07 17:53 55.89646 -19.41859 37937 ft 431 kts 286°
2026-04-07 17:53 55.92376 -19.57030 37925 ft 430 kts 286°
2026-04-07 17:54 55.94157 -19.66986 37930 ft 431 kts 285°
2026-04-07 17:54 55.95967 -19.77158 37927 ft 430 kts 285°
2026-04-07 17:55 55.97765 -19.87338 37916 ft 429 kts 285°
2026-04-07 17:55 55.99544 -19.97478 37927 ft 429 kts 285°
2026-04-07 17:56 56.01176 -20.07676 37935 ft 431 kts 289°
2026-04-07 17:56 56.02563 -20.12493 37925 ft 436 kts 301°
2026-04-07 17:56 56.04453 -20.16712 37909 ft 439 kts 305°
2026-04-07 17:57 56.06140 -20.21136 37899 ft 432 kts 294°
2026-04-07 17:57 56.07218 -20.26070 37898 ft 427 kts 282°
2026-04-07 17:57 56.07800 -20.36604 37888 ft 425 kts 271°
2026-04-07 17:58 56.08154 -20.47095 37904 ft 426 kts 274°
2026-04-07 17:58 56.08894 -20.57582 37893 ft 427 kts 277°
2026-04-07 17:59 56.10072 -20.69296 37893 ft 427 kts 279°
2026-04-07 17:59 56.11317 -20.79702 37882 ft 426 kts 280°
2026-04-07 18:00 56.12626 -20.89958 37880 ft 426 kts 280°
2026-04-07 18:00 56.13974 -21.00266 37872 ft 425 kts 281°
2026-04-07 18:01 56.15332 -21.10534 37853 ft 426 kts 281°
2026-04-07 18:01 56.16697 -21.20857 37849 ft 426 kts 281°
2026-04-07 18:02 56.18045 -21.31101 37840 ft 426 kts 281°
2026-04-07 18:02 56.19401 -21.41430 37848 ft 427 kts 281°
2026-04-07 18:03 56.20748 -21.51757 37830 ft 427 kts 281°
2026-04-07 18:03 56.22085 -21.62089 37844 ft 427 kts 281°
2026-04-07 18:04 56.23426 -21.72515 37837 ft 427 kts 280°
2026-04-07 18:04 56.24744 -21.82851 37832 ft 427 kts 280°
2026-04-07 18:05 56.25227 -21.86646 37816 ft 427 kts 280°
2026-04-07 18:05 56.26541 -21.97048 37809 ft 427 kts 280°
2026-04-07 18:06 56.27854 -22.07485 37804 ft 427 kts 280°
2026-04-07 18:06 56.29151 -22.17910 37798 ft 429 kts 279°
2026-04-07 18:07 56.30448 -22.28408 37772 ft 429 kts 279°
2026-04-07 18:07 56.31729 -22.38839 37786 ft 429 kts 279°
2026-04-07 18:08 56.33003 -22.49307 37771 ft 430 kts 279°
2026-04-07 18:08 56.34272 -22.59795 37777 ft 430 kts 280°
2026-04-07 18:09 56.35532 -22.70301 37762 ft 431 kts 278°
2026-04-07 18:09 56.36786 -22.80830 37742 ft 431 kts 278°
2026-04-07 18:10 56.38029 -22.91347 37740 ft 432 kts 279°
2026-04-07 18:10 56.39267 -23.01892 37723 ft 431 kts 278°
2026-04-07 18:11 56.40496 -23.12477 37702 ft 432 kts 278°
2026-04-07 18:11 56.41717 -23.23072 37711 ft 433 kts 279°
2026-04-07 18:12 56.42927 -23.33660 37675 ft 432 kts 279°
2026-04-07 18:12 56.44132 -23.44259 37680 ft 433 kts 278°
2026-04-07 18:13 56.45322 -23.54845 37684 ft 432 kts 278°
2026-04-07 18:13 56.46513 -23.65492 37668 ft 433 kts 277°
2026-04-07 18:14 56.47688 -23.76126 37653 ft 433 kts 277°
2026-04-07 18:14 56.48855 -23.86756 37634 ft 434 kts 278°
2026-04-07 18:15 56.50022 -23.97472 37637 ft 434 kts 277°
2026-04-07 18:15 56.51168 -24.08106 37636 ft 434 kts 278°
2026-04-07 18:16 56.52312 -24.18772 37616 ft 435 kts 277°
2026-04-07 18:16 56.53447 -24.29475 37597 ft 433 kts 278°
2026-04-07 18:17 56.54565 -24.40112 37598 ft 433 kts 277°
2026-04-07 18:17 56.55683 -24.50811 37584 ft 433 kts 277°
2026-04-07 18:18 56.56785 -24.61472 37578 ft 432 kts 277°
2026-04-07 18:18 56.57878 -24.72156 37571 ft 432 kts 276°
2026-04-07 18:19 56.58956 -24.82793 37572 ft 433 kts 277°
2026-04-07 18:19 56.60040 -24.93551 37562 ft 434 kts 276°
2026-04-07 18:20 56.61105 -25.04248 37553 ft 433 kts 277°
2026-04-07 18:20 56.62163 -25.14947 37552 ft 433 kts 276°
2026-04-07 18:21 56.63213 -25.25696 37524 ft 432 kts 277°
2026-04-07 18:21 56.64254 -25.36409 37514 ft 433 kts 276°
2026-04-07 18:22 56.65280 -25.47110 37505 ft 433 kts 276°
2026-04-07 18:22 56.66301 -25.57849 37492 ft 433 kts 276°
2026-04-07 18:23 56.67312 -25.68586 37498 ft 432 kts 276°
2026-04-07 18:23 56.68320 -25.79359 37484 ft 433 kts 275°
2026-04-07 18:24 56.69308 -25.90050 37470 ft 434 kts 275°
2026-04-07 18:24 56.70299 -26.00928 37463 ft 436 kts 275°
2026-04-07 18:25 56.71276 -26.11697 37456 ft 435 kts 275°
2026-04-07 18:25 56.72244 -26.22511 37445 ft 435 kts 275°
2026-04-07 18:26 56.73204 -26.33347 37452 ft 435 kts 275°
2026-04-07 18:26 56.74157 -26.44190 37443 ft 435 kts 275°
2026-04-07 18:27 56.75094 -26.54975 37433 ft 433 kts 275°
2026-04-07 18:27 56.76028 -26.65798 37427 ft 434 kts 274°
2026-04-07 18:28 56.76946 -26.76612 37398 ft 434 kts 274°
2026-04-07 18:28 56.77860 -26.87468 37393 ft 434 kts 274°
2026-04-07 18:29 56.78762 -26.98290 37389 ft 435 kts 274°
2026-04-07 18:29 56.79656 -27.09135 37378 ft 434 kts 274°
2026-04-07 18:30 56.80540 -27.19987 37359 ft 436 kts 274°
2026-04-07 18:30 56.81420 -27.30884 37365 ft 436 kts 274°
2026-04-07 18:31 56.82293 -27.41851 37370 ft 437 kts 274°
2026-04-07 18:31 56.83151 -27.52772 37366 ft 438 kts 274°
2026-04-07 18:32 56.84000 -27.63697 37351 ft 438 kts 274°
2026-04-07 18:32 56.84843 -27.74675 37329 ft 439 kts 274°
2026-04-07 18:33 56.85680 -27.85657 37333 ft 440 kts 273°
2026-04-07 18:33 56.86514 -27.96743 37334 ft 441 kts 273°
2026-04-07 18:34 56.87333 -28.07805 37329 ft 441 kts 273°
2026-04-07 18:34 56.88145 -28.18870 37332 ft 441 kts 273°
2026-04-07 18:35 56.88943 -28.29904 37317 ft 443 kts 273°
2026-04-07 18:35 56.89735 -28.41005 37311 ft 442 kts 273°
2026-04-07 18:36 56.90516 -28.52072 37297 ft 442 kts 273°
2026-04-07 18:36 56.91288 -28.63180 37301 ft 441 kts 273°
2026-04-07 18:37 56.92053 -28.74330 37295 ft 441 kts 272°
2026-04-07 18:37 56.92804 -28.85414 37299 ft 442 kts 272°
2026-04-07 18:38 56.93544 -28.96469 37288 ft 442 kts 272°
2026-04-07 18:38 56.94281 -29.07597 37287 ft 443 kts 272°
2026-04-07 18:39 56.95004 -29.18749 37290 ft 441 kts 272°
2026-04-07 18:39 56.95719 -29.29893 37280 ft 442 kts 272°
2026-04-07 18:40 56.96423 -29.40997 37273 ft 442 kts 272°
2026-04-07 18:40 56.97116 -29.52103 37266 ft 442 kts 272°
2026-04-07 18:41 56.97808 -29.63338 37258 ft 443 kts 272°
2026-04-07 18:41 56.98484 -29.74488 37259 ft 442 kts 271°
2026-04-07 18:42 56.99147 -29.85606 37246 ft 442 kts 271°
2026-04-07 18:42 56.99587 -29.96726 37224 ft 439 kts 266°
2026-04-07 18:43 56.99443 -30.07809 37236 ft 437 kts 262°
2026-04-07 18:43 56.98835 -30.18841 37227 ft 437 kts 260°
2026-04-07 18:44 56.98183 -30.29822 37233 ft 435 kts 260°
2026-04-07 18:44 56.97517 -30.40835 37226 ft 435 kts 260°
2026-04-07 18:45 56.96839 -30.51815 37228 ft 435 kts 260°
2026-04-07 18:45 56.96157 -30.62783 37222 ft 435 kts 260°
2026-04-07 18:46 56.95461 -30.73738 37218 ft 436 kts 259°
2026-04-07 18:46 56.94749 -30.84755 37193 ft 437 kts 259°
2026-04-07 18:47 56.94030 -30.95769 37209 ft 439 kts 259°
2026-04-07 18:47 56.93304 -31.06741 37208 ft 438 kts 259°
2026-04-07 18:48 56.92565 -31.17743 37219 ft 438 kts 259°
2026-04-07 18:48 56.91815 -31.28783 37206 ft 438 kts 259°
2026-04-07 18:49 56.91057 -31.39767 37213 ft 438 kts 259°
2026-04-07 18:49 56.90290 -31.50770 37200 ft 438 kts 259°
2026-04-07 18:50 56.89511 -31.61773 37193 ft 438 kts 259°
2026-04-07 18:50 56.88718 -31.72818 37201 ft 437 kts 258°
2026-04-07 18:51 56.87925 -31.83761 37196 ft 436 kts 258°
2026-04-07 18:51 56.87122 -31.94712 37195 ft 436 kts 258°
2026-04-07 18:52 56.86314 -32.05580 37195 ft 436 kts 258°
2026-04-07 18:52 56.85490 -32.16522 37196 ft 437 kts 258°
2026-04-07 18:53 56.84654 -32.27506 37187 ft 437 kts 258°
2026-04-07 18:53 56.83814 -32.38413 37186 ft 437 kts 258°
2026-04-07 18:54 56.82959 -32.49367 37175 ft 438 kts 258°
2026-04-07 18:54 56.82096 -32.60302 37169 ft 438 kts 258°
2026-04-07 18:55 56.81226 -32.71203 37174 ft 437 kts 258°
2026-04-07 18:55 56.80342 -32.82144 37182 ft 437 kts 258°
2026-04-07 18:56 56.79451 -32.93070 37184 ft 438 kts 257°
2026-04-07 18:56 56.78549 -33.03998 37173 ft 437 kts 257°
2026-04-07 18:57 56.77633 -33.14981 37168 ft 437 kts 257°
2026-04-07 18:57 56.76708 -33.25962 37181 ft 438 kts 257°
2026-04-07 18:58 56.75768 -33.36959 37161 ft 438 kts 257°
2026-04-07 18:58 56.74828 -33.47877 37160 ft 438 kts 257°
2026-04-07 18:59 56.73879 -33.58766 37151 ft 438 kts 257°
2026-04-07 18:59 56.72921 -33.69622 37163 ft 437 kts 257°
2026-04-07 19:00 56.71955 -33.80497 37168 ft 437 kts 257°
2026-04-07 19:00 56.70977 -33.91372 37162 ft 438 kts 257°
2026-04-07 19:01 56.69984 -34.02313 37154 ft 438 kts 257°
2026-04-07 19:02 56.68486 -34.18606 37157 ft 438 kts 257°
2026-04-07 19:02 56.67473 -34.29505 37155 ft 439 kts 257°
2026-04-07 19:03 56.66446 -34.40401 37149 ft 439 kts 257°
2026-04-07 19:03 56.65415 -34.51268 37151 ft 439 kts 257°
2026-04-07 19:04 56.64370 -34.62169 37147 ft 440 kts 257°
2026-04-07 19:04 56.63315 -34.73059 37144 ft 439 kts 256°
2026-04-07 19:05 56.62244 -34.84022 37139 ft 439 kts 256°
2026-04-07 19:05 56.61172 -34.94882 37143 ft 439 kts 256°
2026-04-07 19:06 56.60086 -35.05792 37138 ft 440 kts 256°
2026-04-07 19:06 56.58994 -35.16664 37146 ft 440 kts 256°
2026-04-07 19:07 56.57898 -35.27458 37138 ft 439 kts 256°
2026-04-07 19:07 56.56789 -35.38290 37137 ft 440 kts 256°
2026-04-07 19:08 56.55665 -35.49183 37140 ft 440 kts 256°
2026-04-07 19:08 56.54532 -35.60046 37126 ft 440 kts 256°
2026-04-07 19:09 56.53394 -35.70854 37128 ft 440 kts 255°
2026-04-07 19:09 56.52239 -35.81743 37130 ft 440 kts 256°
2026-04-07 19:10 56.51081 -35.92572 37134 ft 440 kts 255°
2026-04-07 19:10 56.49915 -36.03367 37134 ft 441 kts 255°
2026-04-07 19:11 56.48730 -36.14239 37123 ft 441 kts 256°
2026-04-07 19:11 56.47538 -36.25088 37126 ft 441 kts 255°
2026-04-07 19:12 56.46338 -36.35920 37124 ft 442 kts 255°
2026-04-07 19:12 56.45131 -36.46723 37119 ft 442 kts 256°
2026-04-07 19:13 56.43908 -36.57576 37120 ft 442 kts 256°
2026-04-07 19:13 56.42681 -36.68370 37118 ft 442 kts 255°
2026-04-07 19:14 56.41440 -36.79213 37110 ft 442 kts 255°
2026-04-07 19:14 56.40187 -36.90066 37124 ft 442 kts 255°
2026-04-07 19:15 56.38933 -37.00830 37123 ft 442 kts 255°
2026-04-07 19:15 56.37659 -37.11676 37116 ft 442 kts 255°
2026-04-07 19:16 56.36385 -37.22445 37118 ft 442 kts 255°
2026-04-07 19:16 56.35100 -37.33218 37110 ft 442 kts 255°
2026-04-07 19:17 56.33798 -37.44047 37105 ft 443 kts 255°
2026-04-07 19:17 56.32496 -37.54787 37122 ft 443 kts 255°
2026-04-07 19:18 56.31172 -37.65612 37124 ft 443 kts 254°
2026-04-07 19:18 56.29849 -37.76360 37114 ft 443 kts 254°
2026-04-07 19:19 56.28508 -37.87183 37101 ft 444 kts 254°
2026-04-07 19:19 56.27160 -37.97966 37110 ft 444 kts 254°
2026-04-07 19:20 56.25809 -38.08685 37108 ft 444 kts 254°
2026-04-07 19:20 56.24441 -38.19458 37104 ft 444 kts 254°
2026-04-07 19:21 56.23057 -38.30285 37103 ft 445 kts 254°
2026-04-07 19:21 56.21671 -38.41043 37099 ft 444 kts 254°
2026-04-07 19:22 56.20277 -38.51786 37103 ft 444 kts 254°
2026-04-07 19:22 56.18869 -38.62547 37091 ft 444 kts 254°
2026-04-07 19:23 56.17454 -38.73283 37107 ft 444 kts 253°
2026-04-07 19:23 56.16033 -38.83988 37101 ft 444 kts 253°
2026-04-07 19:24 56.14603 -38.94687 37107 ft 444 kts 253°
2026-04-07 19:24 56.13162 -39.05401 37103 ft 444 kts 253°
2026-04-07 19:25 56.11705 -39.16153 37091 ft 445 kts 253°
2026-04-07 19:25 56.10244 -39.26852 37089 ft 444 kts 253°
2026-04-07 19:26 56.08772 -39.37552 37101 ft 444 kts 253°
2026-04-07 19:26 56.07293 -39.48240 37110 ft 445 kts 253°
2026-04-07 19:27 56.05802 -39.58947 37098 ft 445 kts 253°
2026-04-07 19:27 56.04305 -39.69615 37098 ft 445 kts 253°
2026-04-07 19:28 56.02797 -39.80298 37098 ft 444 kts 253°
2026-04-07 19:28 56.01284 -39.90922 37100 ft 444 kts 253°
2026-04-07 19:29 56.00009 -40.01650 37103 ft 445 kts 257°
2026-04-07 19:29 55.99247 -40.12588 37106 ft 447 kts 261°
2026-04-07 19:30 55.98589 -40.23622 37106 ft 447 kts 260°
2026-04-07 19:30 55.97929 -40.34580 37094 ft 448 kts 261°
2026-04-07 19:31 55.97258 -40.45588 37088 ft 449 kts 261°
2026-04-07 19:31 55.96593 -40.56384 37090 ft 449 kts 261°
2026-04-07 19:32 55.95904 -40.67387 37096 ft 448 kts 259°
2026-04-07 19:32 55.95206 -40.78385 37104 ft 448 kts 259°
2026-04-07 19:33 55.94498 -40.89394 37104 ft 447 kts 259°
2026-04-07 19:33 55.93779 -41.00396 37092 ft 448 kts 259°
2026-04-07 19:34 55.93053 -41.11376 37088 ft 448 kts 259°
2026-04-07 19:34 55.92314 -41.22380 37086 ft 448 kts 259°
2026-04-07 19:35 55.91569 -41.33322 37095 ft 448 kts 259°
2026-04-07 19:35 55.90812 -41.44308 37101 ft 449 kts 259°
2026-04-07 19:36 55.90042 -41.55321 37108 ft 449 kts 259°
2026-04-07 19:36 55.89263 -41.66320 37110 ft 448 kts 259°
2026-04-07 19:37 55.88480 -41.77233 37108 ft 448 kts 259°
2026-04-07 19:37 55.87682 -41.88250 37114 ft 449 kts 259°
2026-04-07 19:38 55.86882 -41.99141 37120 ft 448 kts 259°
2026-04-07 19:38 55.86060 -42.10159 37111 ft 449 kts 259°
2026-04-07 19:39 55.85237 -42.21071 37109 ft 450 kts 259°
2026-04-07 19:39 55.84398 -42.32082 37112 ft 450 kts 259°
2026-04-07 19:40 55.83547 -42.43093 37117 ft 451 kts 259°
2026-04-07 19:40 55.82686 -42.54111 37108 ft 451 kts 259°
2026-04-07 19:41 55.81821 -42.65049 37109 ft 452 kts 258°
2026-04-07 19:41 55.80937 -42.76092 37115 ft 451 kts 258°
2026-04-07 19:42 55.80048 -42.87087 37127 ft 451 kts 258°
2026-04-07 19:42 55.79148 -42.98087 37123 ft 452 kts 258°
2026-04-07 19:43 55.78238 -43.09064 37107 ft 452 kts 258°
2026-04-07 19:43 55.77317 -43.20068 37117 ft 452 kts 258°
2026-04-07 19:44 55.76391 -43.30999 37117 ft 453 kts 258°
2026-04-07 19:44 55.75448 -43.42023 37129 ft 453 kts 258°
2026-04-07 19:45 55.74501 -43.52974 37127 ft 453 kts 258°
2026-04-07 19:45 55.73535 -43.64008 37136 ft 453 kts 258°
2026-04-07 19:46 55.72567 -43.74959 37136 ft 453 kts 257°
2026-04-07 19:46 55.71582 -43.85978 37131 ft 454 kts 258°
2026-04-07 19:47 55.70587 -43.97001 37126 ft 454 kts 258°
2026-04-07 19:47 55.69584 -44.08019 37122 ft 454 kts 258°
2026-04-07 19:48 55.68572 -44.19000 37127 ft 454 kts 258°
2026-04-07 19:48 55.67551 -44.29960 37132 ft 454 kts 258°
2026-04-07 19:49 55.66522 -44.40904 37141 ft 454 kts 258°
2026-04-07 19:49 55.65478 -44.51900 37143 ft 454 kts 258°
2026-04-07 19:50 55.64422 -44.62911 37149 ft 454 kts 258°
2026-04-07 19:50 55.63366 -44.73806 37150 ft 453 kts 257°
2026-04-07 19:51 55.62293 -44.84767 37150 ft 453 kts 257°
2026-04-07 19:51 55.61209 -44.95754 37143 ft 453 kts 257°
2026-04-07 19:52 55.60122 -45.06668 37134 ft 454 kts 257°
2026-04-07 19:52 55.59022 -45.17601 37145 ft 453 kts 257°
2026-04-07 19:53 55.57914 -45.28513 37154 ft 453 kts 257°
2026-04-07 19:53 55.56792 -45.39453 37159 ft 454 kts 257°
2026-04-07 19:54 55.55660 -45.50386 37167 ft 453 kts 257°
2026-04-07 19:54 55.54530 -45.61211 37166 ft 454 kts 257°
2026-04-07 19:55 55.53380 -45.72132 37167 ft 453 kts 256°
2026-04-07 19:55 55.52219 -45.83046 37163 ft 453 kts 256°
2026-04-07 19:56 55.51058 -45.93867 37173 ft 451 kts 256°
2026-04-07 19:56 55.49891 -46.04660 37169 ft 452 kts 256°
2026-04-07 19:57 55.48703 -46.15536 37178 ft 452 kts 256°
2026-04-07 19:57 55.47517 -46.26287 37178 ft 452 kts 257°
2026-04-07 19:58 55.46316 -46.37106 37196 ft 452 kts 257°
2026-04-07 19:58 55.45101 -46.47963 37201 ft 452 kts 257°
2026-04-07 19:59 55.43884 -46.58747 37198 ft 451 kts 257°
2026-04-07 19:59 55.42659 -46.69505 37202 ft 451 kts 256°
2026-04-07 20:00 55.41421 -46.80271 37209 ft 451 kts 256°
2026-04-07 20:00 55.39542 -46.96465 37224 ft 450 kts 256°
2026-04-07 20:01 55.38291 -47.07137 37252 ft 450 kts 256°
2026-04-07 20:01 55.37017 -47.17928 37240 ft 450 kts 256°
2026-04-07 20:02 55.35746 -47.28591 37233 ft 450 kts 256°
2026-04-07 20:02 55.34458 -47.39308 37235 ft 450 kts 256°
2026-04-07 20:03 55.33157 -47.50056 37247 ft 451 kts 256°
2026-04-07 20:03 55.31853 -47.60750 37256 ft 451 kts 256°
2026-04-07 20:04 55.30536 -47.71467 37262 ft 450 kts 255°
2026-04-07 20:04 55.29209 -47.82185 37274 ft 450 kts 255°
2026-04-07 20:05 55.27880 -47.92828 37275 ft 450 kts 255°
2026-04-07 20:05 55.26543 -48.03463 37289 ft 450 kts 255°
2026-04-07 20:06 55.25190 -48.14125 37294 ft 450 kts 255°
2026-04-07 20:06 55.23829 -48.24772 37302 ft 449 kts 255°
2026-04-07 20:07 55.22462 -48.35401 37313 ft 449 kts 255°
2026-04-07 20:07 55.21081 -48.46043 37309 ft 449 kts 255°
2026-04-07 20:08 55.19696 -48.56656 37324 ft 450 kts 255°
2026-04-07 20:08 55.18303 -48.67241 37335 ft 451 kts 254°
2026-04-07 20:09 55.16897 -48.77864 37356 ft 450 kts 254°
2026-04-07 20:09 55.15475 -48.88524 37355 ft 450 kts 254°
2026-04-07 20:10 55.14048 -48.99141 37370 ft 450 kts 254°
2026-04-07 20:10 55.12620 -49.09679 37383 ft 449 kts 254°
2026-04-07 20:11 55.11183 -49.20216 37403 ft 448 kts 254°
2026-04-07 20:11 55.09742 -49.30712 37416 ft 448 kts 255°
2026-04-07 20:12 55.08287 -49.41240 37425 ft 447 kts 255°
2026-04-07 20:12 55.06828 -49.51729 37439 ft 447 kts 254°
2026-04-07 20:13 55.05358 -49.62222 37439 ft 448 kts 255°
2026-04-07 20:13 55.03872 -49.72756 37435 ft 448 kts 254°
2026-04-07 20:14 55.02381 -49.83261 37443 ft 449 kts 253°
2026-04-07 20:14 55.00874 -49.93701 37438 ft 447 kts 252°
2026-04-07 20:15 54.98962 -50.03919 37464 ft 445 kts 248°
2026-04-07 20:15 54.96591 -50.13885 37469 ft 445 kts 246°
2026-04-07 20:16 54.94208 -50.23737 37478 ft 445 kts 245°
2026-04-07 20:16 54.91819 -50.33572 37488 ft 445 kts 246°
2026-04-07 20:17 54.89409 -50.43431 37517 ft 445 kts 246°
2026-04-07 20:17 54.86990 -50.53275 37523 ft 445 kts 246°
2026-04-07 20:18 54.84575 -50.63060 37528 ft 445 kts 246°
2026-04-07 20:18 54.82127 -50.72934 37537 ft 445 kts 245°
2026-04-07 20:19 54.79699 -50.82691 37538 ft 445 kts 245°
2026-04-07 20:19 54.77241 -50.92522 37534 ft 444 kts 245°
2026-04-07 20:20 54.74797 -51.02248 37555 ft 443 kts 245°
2026-04-07 20:20 54.72343 -51.11976 37561 ft 443 kts 245°
2026-04-07 20:21 54.69873 -51.21718 37577 ft 443 kts 245°
2026-04-07 20:21 54.67399 -51.31444 37591 ft 444 kts 245°
2026-04-07 20:22 54.64920 -51.41136 37588 ft 444 kts 245°
2026-04-07 20:22 54.62426 -51.50848 37605 ft 443 kts 245°
2026-04-07 20:23 54.59947 -51.60462 37611 ft 443 kts 245°
2026-04-07 20:23 54.57437 -51.70151 37612 ft 443 kts 244°
2026-04-07 20:24 54.54923 -51.79815 37634 ft 442 kts 244°
2026-04-07 20:24 54.52426 -51.89377 37647 ft 441 kts 244°
2026-04-07 20:25 54.49921 -51.98928 37650 ft 441 kts 244°
2026-04-07 20:25 54.47389 -52.08538 37646 ft 441 kts 244°
2026-04-07 20:26 54.44861 -52.18089 37645 ft 441 kts 244°
2026-04-07 20:26 54.42338 -52.27588 37657 ft 441 kts 244°
2026-04-07 20:27 54.39785 -52.37160 37677 ft 441 kts 244°
2026-04-07 20:27 54.37245 -52.46645 37680 ft 441 kts 244°
2026-04-07 20:28 54.34688 -52.56146 37689 ft 441 kts 244°
2026-04-07 20:28 54.32116 -52.65667 37695 ft 442 kts 243°
2026-04-07 20:29 54.29555 -52.75108 37702 ft 442 kts 243°
2026-04-07 20:29 54.26964 -52.84619 37713 ft 441 kts 243°
2026-04-07 20:30 54.24387 -52.94038 37719 ft 441 kts 243°
2026-04-07 20:30 54.21774 -53.03553 37720 ft 441 kts 243°
2026-04-07 20:31 54.19186 -53.12940 37723 ft 441 kts 243°
2026-04-07 20:31 54.16575 -53.22375 37723 ft 440 kts 243°
2026-04-07 20:32 54.13959 -53.31783 37741 ft 440 kts 243°
2026-04-07 20:32 54.11354 -53.41110 37746 ft 439 kts 243°
2026-04-07 20:33 54.08730 -53.50470 37753 ft 439 kts 243°
2026-04-07 20:33 54.06094 -53.59837 37759 ft 439 kts 243°
2026-04-07 20:34 54.03456 -53.69172 37764 ft 439 kts 243°
2026-04-07 20:34 54.00835 -53.78415 37772 ft 438 kts 243°
2026-04-07 20:35 53.98189 -53.87706 37772 ft 438 kts 243°
2026-04-07 20:35 53.95538 -53.96977 37784 ft 438 kts 243°
2026-04-07 20:36 53.92880 -54.06242 37815 ft 438 kts 242°
2026-04-07 20:36 53.90230 -54.15438 37815 ft 437 kts 242°
2026-04-07 20:37 53.87557 -54.24673 37811 ft 437 kts 242°
2026-04-07 20:37 53.84885 -54.33868 37807 ft 437 kts 243°
2026-04-07 20:38 53.82204 -54.43059 37814 ft 437 kts 243°
2026-04-07 20:38 53.79512 -54.52257 37821 ft 437 kts 243°
2026-04-07 20:39 53.76824 -54.61404 37827 ft 437 kts 243°
2026-04-07 20:39 53.74117 -54.70574 37834 ft 436 kts 242°
2026-04-07 20:40 53.71415 -54.79701 37839 ft 436 kts 242°
2026-04-07 20:40 53.68725 -54.88747 37845 ft 436 kts 242°
2026-04-07 20:41 53.66003 -54.97871 37846 ft 436 kts 242°
2026-04-07 20:41 53.63277 -55.06972 37841 ft 436 kts 242°
2026-04-07 20:42 53.60558 -55.16012 37842 ft 436 kts 242°
2026-04-07 20:42 53.57867 -55.24921 37845 ft 436 kts 242°
2026-04-07 20:43 53.55110 -55.34021 37846 ft 436 kts 242°
2026-04-07 20:43 53.52359 -55.43067 37851 ft 437 kts 242°
2026-04-07 20:44 53.49598 -55.52112 37857 ft 437 kts 242°
2026-04-07 20:44 53.46829 -55.61149 37858 ft 437 kts 242°
2026-04-07 20:45 53.44051 -55.70174 37860 ft 437 kts 241°
2026-04-07 20:45 53.41261 -55.79212 37867 ft 437 kts 242°
2026-04-07 20:46 53.38465 -55.88236 37883 ft 437 kts 242°
2026-04-07 20:46 53.35661 -55.97252 37891 ft 437 kts 241°
2026-04-07 20:47 53.32848 -56.06261 37878 ft 436 kts 242°
2026-04-07 20:47 53.30021 -56.15284 37886 ft 436 kts 242°
2026-04-07 20:48 53.27190 -56.24285 37880 ft 436 kts 242°
2026-04-07 20:48 53.24372 -56.33209 37873 ft 436 kts 242°
2026-04-07 20:49 53.21552 -56.42116 37872 ft 436 kts 242°
2026-04-07 20:49 53.18726 -56.51008 37866 ft 435 kts 242°
2026-04-07 20:50 53.15892 -56.59898 37857 ft 435 kts 242°
2026-04-07 20:50 53.13048 -56.68769 37849 ft 434 kts 241°
2026-04-07 20:51 53.09966 -56.77379 37837 ft 433 kts 236°
2026-04-07 20:51 53.06425 -56.85408 37821 ft 434 kts 231°
2026-04-07 20:52 53.02591 -56.93161 37818 ft 434 kts 231°
2026-04-07 20:52 52.98772 -57.00899 37817 ft 434 kts 231°
2026-04-07 20:53 52.94938 -57.08636 37827 ft 433 kts 231°
2026-04-07 20:53 52.91125 -57.16296 37836 ft 433 kts 231°
2026-04-07 20:54 52.87304 -57.23942 37838 ft 433 kts 231°
2026-04-07 20:54 52.83459 -57.31620 37840 ft 432 kts 231°
2026-04-07 20:55 52.79642 -57.39209 37839 ft 432 kts 231°
2026-04-07 20:55 52.75810 -57.46807 37847 ft 431 kts 231°
2026-04-07 20:56 52.71992 -57.54361 37843 ft 430 kts 231°
2026-04-07 20:56 52.68146 -57.61943 37846 ft 429 kts 231°
2026-04-07 20:57 52.64318 -57.69465 37851 ft 429 kts 230°
2026-04-07 20:57 52.60469 -57.77001 37854 ft 429 kts 231°
2026-04-07 20:58 52.56635 -57.84493 37862 ft 429 kts 231°
2026-04-07 20:58 52.52799 -57.91965 37863 ft 428 kts 231°
2026-04-07 20:59 52.48949 -57.99439 37861 ft 428 kts 231°
2026-04-07 20:59 52.45094 -58.06902 37862 ft 428 kts 231°
2026-04-07 21:00 52.39349 -58.17986 37881 ft 428 kts 231°
2026-04-07 21:01 52.35499 -58.25383 37877 ft 427 kts 231°
2026-04-07 21:01 52.31653 -58.32756 37878 ft 427 kts 231°
2026-04-07 21:02 52.27812 -58.40099 37881 ft 426 kts 231°
2026-04-07 21:02 52.23983 -58.47390 37879 ft 426 kts 231°
2026-04-07 21:03 52.20122 -58.54723 37880 ft 426 kts 231°
2026-04-07 21:03 52.16267 -58.62024 37884 ft 425 kts 231°
2026-04-07 21:04 52.12431 -58.69268 37898 ft 425 kts 230°
2026-04-07 21:04 52.08588 -58.76503 37906 ft 424 kts 230°
2026-04-07 21:05 52.04738 -58.83736 37915 ft 424 kts 230°
2026-04-07 21:05 52.00882 -58.90957 37921 ft 424 kts 230°
2026-04-07 21:06 51.97030 -58.98149 37926 ft 424 kts 230°
2026-04-07 21:06 51.93167 -59.05339 37943 ft 424 kts 231°
2026-04-07 21:07 51.89311 -59.12499 37947 ft 423 kts 230°
2026-04-07 21:07 51.85439 -59.19665 37944 ft 423 kts 230°
2026-04-07 21:08 51.81589 -59.26773 37948 ft 423 kts 231°
2026-04-07 21:08 51.77731 -59.33874 37946 ft 423 kts 230°
2026-04-07 21:09 51.73840 -59.41016 37954 ft 422 kts 231°
2026-04-07 21:09 51.69994 -59.48057 37948 ft 423 kts 231°
2026-04-07 21:10 51.66095 -59.55172 37946 ft 423 kts 231°
2026-04-07 21:10 51.62214 -59.62235 37944 ft 423 kts 231°
2026-04-07 21:11 51.58316 -59.69308 37950 ft 423 kts 230°
2026-04-07 21:11 51.54448 -59.76308 37936 ft 423 kts 230°
2026-04-07 21:12 51.50550 -59.83345 37947 ft 423 kts 230°
2026-04-07 21:12 51.46643 -59.90376 37972 ft 423 kts 230°
2026-04-07 21:13 51.42728 -59.97404 37977 ft 422 kts 230°
2026-04-07 21:13 51.38845 -60.04356 37981 ft 422 kts 230°
2026-04-07 21:14 51.34937 -60.11332 37981 ft 422 kts 230°
2026-04-07 21:14 51.31038 -60.18270 37985 ft 421 kts 230°
2026-04-07 21:15 51.27138 -60.25195 37971 ft 421 kts 230°
2026-04-07 21:15 51.23225 -60.32120 37978 ft 421 kts 230°
2026-04-07 21:16 51.19305 -60.39042 37981 ft 421 kts 230°
2026-04-07 21:16 51.15405 -60.45909 37986 ft 421 kts 230°
2026-04-07 21:17 51.11488 -60.52788 37990 ft 421 kts 230°
2026-04-07 21:17 51.07562 -60.59661 38004 ft 421 kts 230°
2026-04-07 21:18 51.03624 -60.66537 38032 ft 420 kts 229°
2026-04-07 21:18 50.99713 -60.73346 38049 ft 420 kts 230°
2026-04-07 21:19 50.95765 -60.80204 38056 ft 420 kts 229°
2026-04-07 21:19 50.91850 -60.86987 38054 ft 420 kts 230°
2026-04-07 21:20 50.87928 -60.93763 38054 ft 420 kts 230°
2026-04-07 21:20 50.83982 -61.00559 38054 ft 419 kts 230°
2026-04-07 21:21 50.80047 -61.07322 38060 ft 419 kts 230°
2026-04-07 21:21 50.76115 -61.14059 38065 ft 419 kts 230°
2026-04-07 21:22 50.72169 -61.20803 38073 ft 419 kts 230°
2026-04-07 21:22 50.68226 -61.27522 38075 ft 418 kts 230°
2026-04-07 21:23 50.64294 -61.34207 38082 ft 417 kts 230°
2026-04-07 21:23 50.60375 -61.40851 38077 ft 418 kts 230°
2026-04-07 21:24 50.56428 -61.47527 38077 ft 417 kts 230°
2026-04-07 21:24 50.52484 -61.54180 38077 ft 417 kts 230°
2026-04-07 21:25 50.48532 -61.60826 38083 ft 418 kts 230°
2026-04-07 21:25 50.44568 -61.67477 38095 ft 419 kts 229°
2026-04-07 21:26 50.40607 -61.74106 38103 ft 419 kts 229°
2026-04-07 21:26 50.36631 -61.80741 38114 ft 419 kts 229°
2026-04-07 21:27 50.32674 -61.87330 38121 ft 419 kts 229°
2026-04-07 21:27 50.28669 -61.93979 38131 ft 419 kts 229°
2026-04-07 21:28 50.24703 -62.00546 38135 ft 418 kts 229°
2026-04-07 21:28 50.20717 -62.07128 38144 ft 418 kts 229°
2026-04-07 21:29 50.16721 -62.13711 38144 ft 419 kts 229°
2026-04-07 21:29 50.12733 -62.20261 38150 ft 419 kts 229°
2026-04-07 21:30 50.08745 -62.26798 38152 ft 419 kts 229°
2026-04-07 21:30 50.04724 -62.33371 38152 ft 419 kts 229°
2026-04-07 21:31 50.00703 -62.39926 38156 ft 419 kts 229°
2026-04-07 21:31 49.96692 -62.46447 38158 ft 418 kts 229°
2026-04-07 21:32 49.92711 -62.52903 38161 ft 417 kts 229°
2026-04-07 21:32 49.88689 -62.59411 38166 ft 417 kts 229°
2026-04-07 21:33 49.84680 -62.65880 38172 ft 417 kts 229°
2026-04-07 21:33 49.80686 -62.72308 38175 ft 416 kts 228°
2026-04-07 21:34 49.76674 -62.78751 38179 ft 416 kts 229°
2026-04-07 21:34 49.72651 -62.85192 38180 ft 416 kts 229°
2026-04-07 21:35 49.68638 -62.91603 38175 ft 417 kts 228°
2026-04-07 21:35 49.64616 -62.98013 38176 ft 417 kts 228°
2026-04-07 21:36 49.60574 -63.04438 38169 ft 417 kts 229°
2026-04-07 21:36 49.56527 -63.10853 38168 ft 417 kts 229°
2026-04-07 21:37 49.52518 -63.17191 38164 ft 416 kts 228°
2026-04-07 21:37 49.48461 -63.23587 38170 ft 416 kts 228°
2026-04-07 21:38 49.44445 -63.29905 38178 ft 417 kts 229°
2026-04-07 21:38 49.40391 -63.36268 38185 ft 417 kts 229°
2026-04-07 21:39 49.36344 -63.42603 38192 ft 417 kts 228°
2026-04-07 21:39 49.32283 -63.48945 38199 ft 417 kts 229°
2026-04-07 21:40 49.28236 -63.55246 38206 ft 417 kts 229°
2026-04-07 21:40 49.24163 -63.61575 38216 ft 416 kts 229°
2026-04-07 21:41 49.20113 -63.67851 38223 ft 416 kts 228°
2026-04-07 21:41 49.16061 -63.74114 38221 ft 416 kts 228°
2026-04-07 21:42 49.11988 -63.80397 38224 ft 416 kts 228°
2026-04-07 21:42 49.07920 -63.86656 38226 ft 416 kts 228°
2026-04-07 21:43 49.03851 -63.92901 38225 ft 416 kts 228°
2026-04-07 21:43 48.99761 -63.99162 38221 ft 416 kts 228°
2026-04-07 21:44 48.95680 -64.05394 38220 ft 416 kts 228°
2026-04-07 21:44 48.91592 -64.11620 38213 ft 416 kts 228°
2026-04-07 21:45 48.87538 -64.17782 38215 ft 416 kts 228°
2026-04-07 21:45 48.83439 -64.23994 38225 ft 416 kts 228°
2026-04-07 21:46 48.79362 -64.30157 38220 ft 416 kts 228°
2026-04-07 21:46 48.75274 -64.36323 38224 ft 416 kts 228°
2026-04-07 21:47 48.71169 -64.42503 38219 ft 417 kts 228°
2026-04-07 21:47 48.67064 -64.48667 38211 ft 416 kts 228°
2026-04-07 21:48 48.62934 -64.54851 38205 ft 416 kts 228°
2026-04-07 21:48 48.58795 -64.61033 38195 ft 416 kts 228°
2026-04-07 21:49 48.54682 -64.67162 38189 ft 415 kts 227°
2026-04-07 21:49 48.50574 -64.73267 38178 ft 416 kts 227°
2026-04-07 21:50 48.46442 -64.79396 38177 ft 415 kts 227°
2026-04-07 21:50 48.42337 -64.85467 38186 ft 416 kts 227°
2026-04-07 21:51 48.38234 -64.91527 38191 ft 415 kts 227°
2026-04-07 21:51 48.34096 -64.97619 38200 ft 415 kts 227°
2026-04-07 21:52 48.30000 -65.03636 38216 ft 415 kts 228°
2026-04-07 21:52 48.25863 -65.09695 38215 ft 415 kts 228°
2026-04-07 21:53 48.21766 -65.15689 38212 ft 414 kts 228°
2026-04-07 21:53 48.17617 -65.21678 38203 ft 414 kts 228°
2026-04-07 21:54 48.13482 -65.27721 38213 ft 414 kts 228°
2026-04-07 21:54 48.09375 -65.33701 38228 ft 414 kts 228°
2026-04-07 21:55 48.05259 -65.39670 38239 ft 414 kts 228°
2026-04-07 21:55 48.01635 -65.44912 38250 ft 414 kts 228°
2026-04-07 21:56 47.97504 -65.50872 38258 ft 414 kts 228°
2026-04-07 21:56 47.93364 -65.56825 38256 ft 413 kts 228°
2026-04-07 21:57 47.89256 -65.62722 38255 ft 413 kts 228°
2026-04-07 21:57 47.85117 -65.68645 38253 ft 413 kts 227°
2026-04-07 21:58 47.80967 -65.74577 38249 ft 413 kts 227°
2026-04-07 21:58 47.76825 -65.80480 38245 ft 413 kts 227°
2026-04-07 21:59 47.72700 -65.86345 38237 ft 413 kts 227°
2026-04-07 21:59 47.68538 -65.92252 38227 ft 414 kts 227°
2026-04-07 22:00 47.64383 -65.98134 38213 ft 414 kts 227°
2026-04-07 22:00 47.60234 -66.03989 38200 ft 415 kts 227°
2026-04-07 22:01 47.56049 -66.09885 38187 ft 414 kts 227°
2026-04-07 22:01 47.51908 -66.15707 38172 ft 414 kts 227°
2026-04-07 22:02 47.47755 -66.21529 38159 ft 413 kts 227°
2026-04-07 22:02 47.43581 -66.27368 38157 ft 413 kts 227°
2026-04-07 22:03 47.39403 -66.33198 38163 ft 413 kts 227°
2026-04-07 22:03 47.33208 -66.41824 38167 ft 413 kts 227°
2026-04-07 22:04 47.29048 -66.47598 38160 ft 413 kts 227°
2026-04-07 22:04 47.24868 -66.53387 38148 ft 413 kts 227°
2026-04-07 22:05 47.20690 -66.59160 38145 ft 413 kts 227°
2026-04-07 22:05 47.16519 -66.64910 38147 ft 412 kts 227°
2026-04-07 22:06 47.12349 -66.70644 38150 ft 412 kts 227°
2026-04-07 22:06 47.08146 -66.76418 38148 ft 413 kts 227°
2026-04-07 22:07 47.03990 -66.82112 38147 ft 413 kts 227°
2026-04-07 22:07 46.99780 -66.87869 38143 ft 412 kts 227°
2026-04-07 22:08 46.95609 -66.93559 38138 ft 413 kts 227°
2026-04-07 22:08 46.91652 -66.98946 38136 ft 412 kts 227°
2026-04-07 22:09 46.87209 -67.04800 38146 ft 414 kts 224°
2026-04-07 22:09 46.82645 -67.09965 38155 ft 415 kts 222°
2026-04-07 22:10 46.78097 -67.15041 38154 ft 414 kts 222°
2026-04-07 22:10 46.73518 -67.20142 38155 ft 414 kts 222°
2026-04-07 22:11 46.68948 -67.25217 38158 ft 413 kts 222°
2026-04-07 22:11 46.64417 -67.30232 38163 ft 413 kts 223°
2026-04-07 22:12 46.59845 -67.35282 38174 ft 412 kts 222°
2026-04-07 22:12 46.55406 -67.40173 38179 ft 412 kts 223°
2026-04-07 22:13 46.50860 -67.45174 38176 ft 412 kts 222°
2026-04-07 22:13 46.46304 -67.50171 38181 ft 412 kts 223°
2026-04-07 22:14 46.41734 -67.55177 38184 ft 411 kts 223°
2026-04-07 22:14 46.37152 -67.60178 38184 ft 411 kts 223°
2026-04-07 22:15 46.32604 -67.65138 38192 ft 412 kts 222°
2026-04-07 22:15 46.30309 -67.67635 38316 ft 414 kts 222°
2026-04-07 22:15 46.28019 -67.70123 38637 ft 413 kts 222°
2026-04-07 22:16 46.25727 -67.72614 38955 ft 412 kts 221°
2026-04-07 22:16 46.23447 -67.75090 39232 ft 411 kts 222°
2026-04-07 22:16 46.21144 -67.77583 39493 ft 411 kts 221°
2026-04-07 22:16 46.18888 -67.80027 39725 ft 410 kts 222°
2026-04-07 22:17 46.16609 -67.82488 39950 ft 410 kts 222°
2026-04-07 22:17 46.14328 -67.84954 40141 ft 410 kts 221°
2026-04-07 22:17 46.09776 -67.89863 40179 ft 410 kts 222°
2026-04-07 22:18 46.05190 -67.94797 40178 ft 411 kts 222°
2026-04-07 22:18 46.00608 -67.99718 40180 ft 411 kts 222°
2026-04-07 22:19 45.96043 -68.04609 40182 ft 411 kts 222°
2026-04-07 22:19 45.91471 -68.09503 40172 ft 411 kts 222°
2026-04-07 22:20 45.86891 -68.14386 40176 ft 410 kts 221°
2026-04-07 22:20 45.82325 -68.19250 40176 ft 411 kts 222°
2026-04-07 22:21 45.77753 -68.24111 40166 ft 409 kts 222°
2026-04-07 22:21 45.73209 -68.28930 40164 ft 409 kts 222°
2026-04-07 22:22 45.68621 -68.33783 40176 ft 409 kts 222°
2026-04-07 22:22 45.64012 -68.38528 40192 ft 413 kts 219°
2026-04-07 22:23 45.59139 -68.42877 40194 ft 413 kts 218°
2026-04-07 22:23 45.54272 -68.47180 40198 ft 412 kts 218°
2026-04-07 22:24 45.49410 -68.51500 40197 ft 413 kts 218°
2026-04-07 22:24 45.44558 -68.55823 40199 ft 413 kts 218°
2026-04-07 22:25 45.39708 -68.60143 40200 ft 412 kts 218°
2026-04-07 22:25 45.34860 -68.64457 40196 ft 413 kts 218°
2026-04-07 22:26 45.29989 -68.68780 40198 ft 413 kts 218°
2026-04-07 22:26 45.25136 -68.73083 40197 ft 413 kts 218°
2026-04-07 22:27 45.20281 -68.77375 40201 ft 413 kts 218°
2026-04-07 22:27 45.15418 -68.81666 40207 ft 413 kts 218°
2026-04-07 22:28 45.10529 -68.85973 40210 ft 413 kts 218°
2026-04-07 22:28 45.05680 -68.90237 40211 ft 413 kts 218°
2026-04-07 22:29 45.00808 -68.94512 40211 ft 412 kts 218°
2026-04-07 22:29 44.95960 -68.98758 40221 ft 413 kts 218°
2026-04-07 22:30 44.91098 -69.03004 40210 ft 414 kts 218°
2026-04-07 22:30 44.86225 -69.07253 40216 ft 414 kts 218°
2026-04-07 22:31 44.81334 -69.11517 40213 ft 413 kts 218°
2026-04-07 22:31 44.76454 -69.15734 40221 ft 414 kts 218°
2026-04-07 22:32 44.71558 -69.19966 40212 ft 413 kts 218°
2026-04-07 22:32 44.66689 -69.24151 40194 ft 411 kts 218°
2026-04-07 22:33 44.61807 -69.28354 40196 ft 411 kts 218°
2026-04-07 22:33 44.56936 -69.32546 40191 ft 412 kts 218°
2026-04-07 22:34 44.52075 -69.36723 40185 ft 412 kts 218°
2026-04-07 22:34 44.47165 -69.40936 40194 ft 412 kts 218°
2026-04-07 22:35 44.42300 -69.45106 40195 ft 411 kts 218°
2026-04-07 22:35 44.37455 -69.49246 40193 ft 412 kts 218°
2026-04-07 22:36 44.32565 -69.53420 40198 ft 412 kts 218°
2026-04-07 22:36 44.27696 -69.57568 40193 ft 411 kts 218°
2026-04-07 22:37 44.22795 -69.61732 40201 ft 411 kts 219°
2026-04-07 22:37 44.17916 -69.65875 40201 ft 411 kts 218°
2026-04-07 22:38 44.13031 -69.70010 40195 ft 412 kts 218°
2026-04-07 22:38 44.08162 -69.74123 40192 ft 412 kts 218°
2026-04-07 22:39 44.03259 -69.78260 40196 ft 412 kts 217°
2026-04-07 22:39 43.98381 -69.82368 40203 ft 413 kts 218°
2026-04-07 22:40 43.93457 -69.86499 40217 ft 412 kts 217°
2026-04-07 22:40 43.88470 -69.90680 40216 ft 412 kts 217°
2026-04-07 22:41 43.83528 -69.94816 40211 ft 412 kts 217°
2026-04-07 22:41 43.78613 -69.98918 40209 ft 412 kts 218°
2026-04-07 22:42 43.73732 -70.02986 40225 ft 412 kts 218°
2026-04-07 22:42 43.68819 -70.07071 40210 ft 412 kts 218°
2026-04-07 22:43 43.63943 -70.11140 40233 ft 411 kts 218°
2026-04-07 22:43 43.59016 -70.15208 40228 ft 410 kts 218°
2026-04-07 22:44 43.54158 -70.19226 40214 ft 409 kts 218°
2026-04-07 22:44 43.49294 -70.23240 40213 ft 409 kts 218°
2026-04-07 22:45 43.44403 -70.27268 40213 ft 409 kts 218°
2026-04-07 22:45 43.39541 -70.31264 40216 ft 408 kts 218°
2026-04-07 22:46 43.34692 -70.35249 40214 ft 408 kts 218°
2026-04-07 22:46 43.29802 -70.39253 40216 ft 408 kts 218°
2026-04-07 22:47 43.24952 -70.43214 40213 ft 409 kts 218°
2026-04-07 22:47 43.20094 -70.47183 40214 ft 408 kts 218°
2026-04-07 22:48 43.15223 -70.51150 40208 ft 408 kts 218°
2026-04-07 22:48 43.10366 -70.55101 40220 ft 408 kts 218°
2026-04-07 22:49 43.05495 -70.59051 40214 ft 407 kts 218°
2026-04-07 22:49 43.00619 -70.63004 40220 ft 408 kts 218°
2026-04-07 22:50 42.95748 -70.66946 40214 ft 406 kts 218°
2026-04-07 22:50 42.90894 -70.70866 40221 ft 406 kts 218°
2026-04-07 22:51 42.86031 -70.74779 40226 ft 408 kts 218°
2026-04-07 22:51 42.81139 -70.78716 40218 ft 407 kts 218°
2026-04-07 22:52 42.76269 -70.82625 40228 ft 406 kts 218°
2026-04-07 22:52 42.71428 -70.86504 40222 ft 408 kts 218°
2026-04-07 22:53 42.66537 -70.90414 40232 ft 407 kts 217°
2026-04-07 22:53 42.61678 -70.94294 40227 ft 406 kts 218°
2026-04-07 22:54 42.56786 -70.98192 40227 ft 404 kts 218°
2026-04-07 22:54 42.51891 -71.02081 40235 ft 405 kts 218°
2026-04-07 22:55 42.46883 -71.06058 40236 ft 406 kts 218°
2026-04-07 22:55 42.41942 -71.09974 40239 ft 406 kts 218°
2026-04-07 22:56 42.39447 -71.11949 40104 ft 405 kts 218°
2026-04-07 22:56 42.36983 -71.13895 39848 ft 404 kts 218°
2026-04-07 22:56 42.34577 -71.15790 39598 ft 401 kts 218°
2026-04-07 22:56 42.32185 -71.17677 39347 ft 396 kts 218°
2026-04-07 22:57 42.29837 -71.19522 39106 ft 391 kts 219°
2026-04-07 22:57 42.27484 -71.21374 38863 ft 390 kts 219°
2026-04-07 22:57 42.25129 -71.23227 38617 ft 389 kts 219°
2026-04-07 22:57 42.22763 -71.25094 38362 ft 387 kts 219°
2026-04-07 22:58 42.20464 -71.26905 38119 ft 383 kts 219°
2026-04-07 22:58 42.18159 -71.28713 37872 ft 380 kts 219°
2026-04-07 22:58 42.15870 -71.30505 37620 ft 379 kts 220°
2026-04-07 22:58 42.13613 -71.32278 37379 ft 377 kts 219°
2026-04-07 22:59 42.11372 -71.34032 37141 ft 375 kts 219°
2026-04-07 22:59 42.09127 -71.35784 36882 ft 372 kts 219°
2026-04-07 22:59 42.06895 -71.37532 36623 ft 369 kts 219°
2026-04-07 22:59 42.04693 -71.39249 36369 ft 367 kts 219°
2026-04-07 23:00 42.02493 -71.40964 36131 ft 366 kts 219°
2026-04-07 23:00 42.00290 -71.42678 35919 ft 364 kts 219°
2026-04-07 23:00 41.98115 -71.44376 35694 ft 358 kts 219°
2026-04-07 23:00 41.95980 -71.46037 35493 ft 355 kts 218°
2026-04-07 23:01 41.93850 -71.47697 35317 ft 353 kts 219°
2026-04-07 23:01 41.91732 -71.49345 35121 ft 350 kts 220°
2026-04-07 23:01 41.89622 -71.50983 34912 ft 348 kts 220°
2026-04-07 23:02 41.85464 -71.54218 34482 ft 343 kts 219°
2026-04-07 23:02 41.83411 -71.55806 34258 ft 342 kts 219°
2026-04-07 23:02 41.81345 -71.57404 34033 ft 342 kts 219°
2026-04-07 23:02 41.79298 -71.59000 33791 ft 339 kts 219°
2026-04-07 23:03 41.77255 -71.60574 33541 ft 340 kts 220°
2026-04-07 23:03 41.75233 -71.62135 33294 ft 340 kts 219°
2026-04-07 23:03 41.73170 -71.63732 33047 ft 342 kts 218°
2026-04-07 23:03 41.71119 -71.65319 32802 ft 342 kts 219°
2026-04-07 23:04 41.69043 -71.66918 32557 ft 345 kts 219°
2026-04-07 23:04 41.66989 -71.68502 32312 ft 347 kts 218°
2026-04-07 23:04 41.64868 -71.70134 32060 ft 350 kts 219°
2026-04-07 23:04 41.62766 -71.71757 31813 ft 350 kts 218°
2026-04-07 23:05 41.60670 -71.73364 31533 ft 353 kts 219°
2026-04-07 23:05 41.58512 -71.75024 31118 ft 356 kts 218°
2026-04-07 23:05 41.56385 -71.76656 30547 ft 356 kts 219°
2026-04-07 23:05 41.54234 -71.78305 29900 ft 358 kts 218°
2026-04-07 23:06 41.52084 -71.79945 29251 ft 360 kts 219°
2026-04-07 23:06 41.49902 -71.81622 28573 ft 363 kts 219°
2026-04-07 23:06 41.47719 -71.83298 27873 ft 367 kts 220°
2026-04-07 23:06 41.45513 -71.84983 27181 ft 370 kts 219°
2026-04-07 23:07 41.43272 -71.86693 26471 ft 372 kts 218°
2026-04-07 23:07 41.41042 -71.88395 25774 ft 374 kts 220°
2026-04-07 23:07 41.38807 -71.90102 25261 ft 370 kts 219°
2026-04-07 23:07 41.36574 -71.91795 24847 ft 365 kts 219°
2026-04-07 23:08 41.34369 -71.93472 24440 ft 364 kts 219°
2026-04-07 23:08 41.32070 -71.95224 24293 ft 372 kts 219°
2026-04-07 23:08 41.29807 -71.96949 24264 ft 373 kts 219°
2026-04-07 23:08 41.27549 -71.98667 24279 ft 374 kts 219°
2026-04-07 23:09 41.25314 -72.00363 24260 ft 375 kts 219°
2026-04-07 23:09 41.23046 -72.02084 24212 ft 371 kts 219°
2026-04-07 23:09 41.20797 -72.03786 24043 ft 373 kts 220°
2026-04-07 23:09 41.18588 -72.05464 23784 ft 369 kts 220°
2026-04-07 23:10 41.16332 -72.07169 23490 ft 370 kts 220°
2026-04-07 23:10 41.14127 -72.08839 23152 ft 368 kts 220°
2026-04-07 23:10 41.12030 -72.10701 22719 ft 354 kts 230°
2026-04-07 23:10 41.10389 -72.13048 22305 ft 342 kts 239°
2026-04-07 23:11 41.09199 -72.15651 22059 ft 328 kts 249°
2026-04-07 23:11 41.08381 -72.18435 21510 ft 316 kts 255°
2026-04-07 23:11 41.07693 -72.21107 20906 ft 301 kts 255°
2026-04-07 23:11 41.07051 -72.23637 20661 ft 280 kts 255°
2026-04-07 23:12 41.06461 -72.25980 20417 ft 262 kts 255°
2026-04-07 23:12 41.05893 -72.28237 20181 ft 258 kts 256°
2026-04-07 23:12 41.05329 -72.30502 19969 ft 260 kts 256°
2026-04-07 23:12 41.04765 -72.32778 19766 ft 259 kts 256°
2026-04-07 23:13 41.04206 -72.35031 19556 ft 260 kts 256°
2026-04-07 23:13 41.03643 -72.37301 19356 ft 261 kts 256°
2026-04-07 23:13 41.03070 -72.39592 19056 ft 261 kts 257°
2026-04-07 23:13 41.02506 -72.41846 18718 ft 260 kts 256°
2026-04-07 23:14 41.01939 -72.44132 18374 ft 259 kts 257°
2026-04-07 23:14 41.01383 -72.46354 18039 ft 257 kts 256°
2026-04-07 23:14 41.00825 -72.48588 17693 ft 255 kts 256°
2026-04-07 23:14 41.00264 -72.50826 17365 ft 254 kts 256°
2026-04-07 23:15 40.99706 -72.53043 17040 ft 254 kts 257°
2026-04-07 23:15 40.99152 -72.55248 16645 ft 253 kts 256°
2026-04-07 23:15 40.98603 -72.57442 16331 ft 251 kts 257°
2026-04-07 23:15 40.98059 -72.59609 15954 ft 252 kts 257°
2026-04-07 23:16 40.97500 -72.61844 15568 ft 257 kts 257°
2026-04-07 23:16 40.96932 -72.64104 15073 ft 260 kts 257°
2026-04-07 23:16 40.96362 -72.66365 14647 ft 261 kts 256°
2026-04-07 23:16 40.95786 -72.68642 14283 ft 261 kts 257°
2026-04-07 23:17 40.95220 -72.70892 13920 ft 260 kts 257°
2026-04-07 23:17 40.94645 -72.73167 13563 ft 259 kts 256°
2026-04-07 23:17 40.94079 -72.75407 13211 ft 258 kts 256°
2026-04-07 23:17 40.93506 -72.77650 12726 ft 258 kts 254°
2026-04-07 23:18 40.92626 -72.79739 12157 ft 264 kts 237°
2026-04-07 23:18 40.91274 -72.81441 12037 ft 276 kts 225°
2026-04-07 23:18 40.89726 -72.82949 11989 ft 277 kts 223°
2026-04-07 23:18 40.88033 -72.84285 11971 ft 281 kts 216°
2026-04-07 23:19 40.86313 -72.85480 11963 ft 283 kts 215°
2026-04-07 23:19 40.84555 -72.86674 11961 ft 282 kts 215°
2026-04-07 23:19 40.82815 -72.87843 11958 ft 283 kts 215°
2026-04-07 23:19 40.81031 -72.89040 11959 ft 284 kts 215°
2026-04-07 23:20 40.79281 -72.90209 11958 ft 284 kts 215°
2026-04-07 23:20 40.77530 -72.91381 11869 ft 284 kts 214°
2026-04-07 23:20 40.75869 -72.92719 11498 ft 274 kts 230°
2026-04-07 23:20 40.74557 -72.94513 11144 ft 268 kts 235°
2026-04-07 23:21 40.73331 -72.96337 10784 ft 267 kts 236°
2026-04-07 23:21 40.72118 -72.98175 10423 ft 266 kts 236°
2026-04-07 23:21 40.70907 -73.00036 10061 ft 266 kts 236°
2026-04-07 23:21 40.69762 -73.01913 9695 ft 263 kts 242°
2026-04-07 23:22 40.68816 -73.03964 9383 ft 258 kts 246°
2026-04-07 23:22 40.67938 -73.06036 9115 ft 260 kts 247°
2026-04-07 23:22 40.67073 -73.08116 8847 ft 259 kts 247°
2026-04-07 23:22 40.66219 -73.10184 8590 ft 259 kts 247°
2026-04-07 23:23 40.65351 -73.12295 8331 ft 259 kts 247°
2026-04-07 23:23 40.64519 -73.14388 8072 ft 258 kts 250°
2026-04-07 23:23 40.63765 -73.16500 7817 ft 257 kts 251°
2026-04-07 23:23 40.63019 -73.18652 7557 ft 256 kts 251°
2026-04-07 23:24 40.62289 -73.20769 7262 ft 256 kts 251°
2026-04-07 23:24 40.61559 -73.22884 6950 ft 254 kts 251°
2026-04-07 23:24 40.60827 -73.25008 6638 ft 252 kts 251°
2026-04-07 23:24 40.60104 -73.27090 6289 ft 249 kts 251°
2026-04-07 23:25 40.59402 -73.29095 5963 ft 238 kts 251°
2026-04-07 23:25 40.58712 -73.31042 5697 ft 230 kts 251°
2026-04-07 23:25 40.58042 -73.32918 5403 ft 229 kts 252°
2026-04-07 23:25 40.57495 -73.34868 5070 ft 226 kts 260°
2026-04-07 23:26 40.57066 -73.36853 4758 ft 225 kts 261°
2026-04-07 23:26 40.56657 -73.38848 4444 ft 226 kts 261°
2026-04-07 23:26 40.56387 -73.40830 4135 ft 220 kts 274°
2026-04-07 23:26 40.56374 -73.42818 3940 ft 215 kts 276°
2026-04-07 23:27 40.56396 -73.44759 3765 ft 212 kts 276°
2026-04-07 23:27 40.56416 -73.46702 3549 ft 213 kts 277°
2026-04-07 23:27 40.56431 -73.48627 3391 ft 211 kts 276°
2026-04-07 23:27 40.56441 -73.50575 3211 ft 212 kts 276°
2026-04-07 23:28 40.56447 -73.52499 3068 ft 211 kts 276°
2026-04-07 23:28 40.56452 -73.54431 2988 ft 211 kts 276°
2026-04-07 23:28 40.56456 -73.56339 2961 ft 200 kts 277°
2026-04-07 23:28 40.56598 -73.58114 2873 ft 180 kts 291°
2026-04-07 23:29 40.57025 -73.59591 2768 ft 165 kts 300°
2026-04-07 23:29 40.57555 -73.60891 2672 ft 150 kts 306°
2026-04-07 23:29 40.58102 -73.62103 2497 ft 140 kts 307°
2026-04-07 23:29 40.58607 -73.63202 2305 ft 138 kts 307°
2026-04-07 23:30 40.59096 -73.64273 2109 ft 132 kts 307°
2026-04-07 23:30 40.59572 -73.65320 1936 ft 132 kts 306°
2026-04-07 23:30 40.60041 -73.66357 1761 ft 130 kts 306°
2026-04-07 23:30 40.60503 -73.67376 1581 ft 130 kts 306°
2026-04-07 23:31 40.60961 -73.68418 1399 ft 131 kts 304°
2026-04-07 23:31 40.61421 -73.69453 1210 ft 131 kts 305°
2026-04-07 23:31 40.61882 -73.70502 1034 ft 130 kts 305°
2026-04-07 23:31 40.62355 -73.71519 833 ft 130 kts 306°
2026-04-07 23:32 40.62842 -73.72526 658 ft 131 kts 304°
2026-04-07 23:32 40.63288 -73.73555 534 ft 129 kts 304°
2026-04-07 23:32 40.63750 -73.74588 361 ft 131 kts 304°
2026-04-07 23:32 40.64214 -73.75606 171 ft 128 kts 304°
2026-04-07 23:33 40.64687 -73.76627 25 ft 124 kts 304°
2026-04-07 23:33 40.65042 -73.77402 24 ft 69 kts 300°
2026-04-07 23:33 40.65226 -73.77809 24 ft 43 kts 301°
2026-04-07 23:33 40.65377 -73.78143 24 ft 40 kts 300°
2026-04-07 23:34 40.65397 -73.78367 24 ft 18 kts 224°
2026-04-07 23:34 40.65357 -73.78455 24 ft 10 kts 250°
2026-04-07 23:34 40.65321 -73.78559 24 ft 14 kts 243°
2026-04-07 23:34 40.65259 -73.78707 24 ft 21 kts 240°
2026-04-07 23:35 40.65221 -73.78911 24 ft 26 kts 279°
2026-04-07 23:35 40.65275 -73.79153 24 ft 28 kts 286°
2026-04-07 23:35 40.65256 -73.79403 24 ft 28 kts 242°
2026-04-07 23:35 40.65157 -73.79636 24 ft 29 kts 239°
2026-04-07 23:36 40.65009 -73.79803 24 ft 27 kts 187°
2026-04-07 23:36 40.64812 -73.79802 24 ft 28 kts 172°
2026-04-07 23:36 40.64633 -73.79679 24 ft 29 kts 144°
2026-04-07 23:36 40.64449 -73.79594 24 ft 29 kts 176°
2026-04-07 23:37 40.64247 -73.79601 24 ft 21 kts 181°
2026-04-07 23:37 40.64196 -73.79532 24 ft 12 kts 83°
2026-04-07 23:37 40.64232 -73.79412 24 ft 14 kts 53°
2026-04-07 23:37 40.64296 -73.79318 24 ft 10 kts 69°
2026-04-07 23:38 40.64291 -73.79232 24 ft 1 kts 101°
2026-04-07 23:38 40.64286 -73.79208 24 ft 0 kts 105°